Find KUIPER-00519

NORAD ID: 68890 Int'l Des: 2026-095AC Owner: kuiper Country: USA Constellation: kuiper operational
LEOCIRCULAR

Live-Position

3D-Globus wird geladen...

Über KUIPER-00519

Beschreibung wird geladen...

Nächste Überflüge

Passes for default location (London). Set your location on the main map for personalized predictions.

Höhenverlauf

Loading altitude history...

Zweizeiliger Elementsatz

1 68890U 26095AC 26121.83336806 .00061382 00000-0 16076-2 0 9994
2 68890 51.8822 106.4880 0002303 83.2086 85.6505 15.38117852 1327
Epoch: 1. Mai 2026 • Age: 6 hours

Aktueller Status

Höhe 453.7 km
Geschwindigkeit 7.65 km/s
Subsatellitenpunkt 40.08°N, 99.78°W
Typ internet

Most Searched